Location: Nitra
(0.0000°N, 18.0833°E)
Time: 20:13:22
(UTC+02:00)

A-11 Canister half - Pass Details

Date: 02 April 2023
Orbit: 1526 x 1682 km, 47.3° (Epoch: 08 June)

Event Time Altitude Azimuth Distance (km) Brightness Sun altitude
Rises 09:20:59 0° 187° (S) 4,815 11.5 37.2°
Reaches altitude 10° 09:26:20 10° 164° (SSE) 3,863 11.3 38.6°
Maximum altitude 09:31:02 14° 134° (SE) 3,558 11.6 39.7°
Drops below altitude 10° 09:35:46 10° 105° (ESE) 3,910 12.1 40.9°
Sets 09:41:09 0° 82° (E) 4,916 12.5 42.3°
